DMSP 5D-2 F13 DEB, 40415

Orbit data source: Space-Track

DMSP 5D-2 F13 DEB, 40415 is space debris in SSO originally from a launch on Fri, 24 Mar 1995 UTC launched from the Air Force Western Test Range (AFWTR). Debris objects in space refer to the collection of defunct objects orbiting the Earth. Examples of debris include non-operational satellites, rocket bodies, and fragments generated from explosions, collisions, or faulty payload assembly.

Loading next visibility...
Identifier
40415, 1995-015AC
Orbit
SSO
Last TLE update
9 hours ago
Origin
Manufacturer
Unknown
Mission
Spacecraft
Bus & Motor
Unknown
Mass
Unknown
Launch date (UTC)
1995-03-24 (30 years ago)
Launch vehicle
Unknown
Launch site
Air Force Western Test Range (AFWTR)
Object type
Payload
Rocket body
Debris
Shape & HBR
Unknown
Radar Cross Section
Small (<0.1 m²)

Expand to show TLE details & history

TLE from 9 hours ago
0 DMSP 5D-2 F13 DEB
1 40415U 95015AC  25181.86405169  .00001443  00000-0  60356-3 0  9995
2 40415  98.7459 203.9602 0003782 281.5674  78.5082 14.27667221535880
Epoch: 2025-06-30T20:44Z
TLE epoch observation values (Epoch: 2025-06-30T20:44:14.066Z)
Latitude
0.00001°
Longitude
-26.26616°
Altitude
801.923 km
Speed
7.453 km/s
True Right ascension
13h 35m 50s
True Declination
0° 00' 00"
Sunlit
Object was in daylight at epoch
Visualization orbit readout
Latitude
48.03737°
Longitude
163.90803°
Altitude
809.341 km
Speed
7.452 km/s
Apparent Right ascension
03h 50m 47s
Apparent Declination
7° 59' 01"
Sunlit
Object is in daylight
Visualization observer readout
Local Sidereal Time
17:23:18
Azimuth
29.383° NE
Elevation
-37.544°
Doppler factor
1
Orbital elements
Apogee altitude
799.403 km
Perigee altitude
793.976 km
Semi-major axis
7,174.826 km
Eccentricity
0.00038
Inclination
98.7459°
RAAN
203.9602°
Arg. of periapsis
281.5674°
True anomaly
Unknown
Mean anomaly
78.5082°
Eccentric anomaly
Unknown
Mean motion
3.5713 °/min
Orbital period
100.8 mins
BSTAR
0.00060356
Loading maneuver chart data...
Loading SW <> Apogee altitude chart data...

DMSP 5D-2 F13 DEB Visibility forecast

Observer location: undefined°, undefined°

Span
Click to sort rows by Start time (UTC) header in descending order
Start Az.
Max El. time (UTC)
Max El. Az.
Max El.
End time (UTC)
End Az.
10 mins2025-07-01 14:07:38.110Z20.187° NNE2025-07-01 14:12:38.110Z94.6° ESE41.856°2025-07-01 14:17:38.110Z182.81° SSW
4 mins2025-07-01 15:50:38.110Z314.683° NW2025-07-01 15:51:38.110Z301.222° NW15.96°2025-07-01 15:54:38.110Z264.031° W
8 mins2025-07-02 01:27:38.110Z166.042° S2025-07-02 01:31:38.110Z339.145° N44.122°2025-07-02 01:35:38.110Z345.881° N
|